Satellite-Ground Cal/Val Region Overpasses Predictions

Prediction of Satellite NPP Overpassing Cal/Val Region: PacNW

Region Location: (Latitude: 10.00, Longitude: 139.50) to (Latitude: 22.70, Longitude: 165.60).

Table of predicted overpasses for the next 14.0 days since TLE Epoch: 1/16/2022
Interval Starting Time Starting Location Ending Time Ending Location
1 01/16/2022 03:43:18 ( 10.03, 144.00) 01/16/2022 03:46:53 ( 22.65, 141.00)
2 01/16/2022 14:34:50 ( 18.54, 165.59) 01/16/2022 14:37:15 ( 10.03, 163.60)
3 01/16/2022 16:15:09 ( 22.69, 141.23) 01/16/2022 16:17:10 ( 15.59, 139.51)
4 01/17/2022 03:24:14 ( 10.02, 148.76) 01/17/2022 03:27:49 ( 22.65, 145.76)
5 01/17/2022 15:56:07 ( 22.64, 145.98) 01/17/2022 15:59:42 ( 10.02, 142.98)
6 01/18/2022 03:05:11 ( 10.01, 153.52) 01/18/2022 03:08:47 ( 22.70, 150.51)
7 01/18/2022 15:37:03 ( 22.65, 150.75) 01/18/2022 15:40:38 ( 10.03, 147.75)
8 01/19/2022 02:46:07 ( 10.01, 158.29) 01/19/2022 02:49:43 ( 22.69, 155.27)
9 01/19/2022 15:18:00 ( 22.66, 155.51) 01/19/2022 15:21:35 ( 10.04, 152.51)
10 01/20/2022 02:27:05 ( 10.06, 163.04) 01/20/2022 02:30:40 ( 22.68, 160.04)
11 01/20/2022 14:58:56 ( 22.67, 160.28) 01/20/2022 15:02:31 ( 10.05, 157.28)
12 01/21/2022 02:10:41 ( 19.45, 165.60) 01/21/2022 02:11:36 ( 22.67, 164.80)
13 01/21/2022 03:49:30 ( 10.00, 142.44) 01/21/2022 03:53:01 ( 22.39, 139.50)
14 01/21/2022 14:39:53 ( 22.67, 165.04) 01/21/2022 14:43:28 ( 10.05, 162.04)
15 01/21/2022 16:21:23 ( 22.66, 139.66) 01/21/2022 16:21:34 ( 22.02, 139.50)
16 01/22/2022 03:30:28 ( 10.06, 147.19) 01/22/2022 03:34:03 ( 22.68, 144.19)
17 01/22/2022 16:02:19 ( 22.67, 144.43) 01/22/2022 16:05:54 ( 10.05, 141.43)
18 01/23/2022 03:11:24 ( 10.05, 151.96) 01/23/2022 03:14:59 ( 22.67, 148.96)
19 01/23/2022 15:43:16 ( 22.68, 149.19) 01/23/2022 15:46:51 ( 10.05, 146.19)
20 01/24/2022 02:52:21 ( 10.05, 156.72) 01/24/2022 02:55:56 ( 22.67, 153.72)
21 01/24/2022 15:24:13 ( 22.68, 153.96) 01/24/2022 15:27:49 ( 10.00, 150.94)
22 01/25/2022 02:33:17 ( 10.04, 161.48) 01/25/2022 02:36:52 ( 22.67, 158.48)
23 01/25/2022 15:05:09 ( 22.69, 158.72) 01/25/2022 15:08:45 ( 10.01, 155.71)
24 01/26/2022 02:15:02 ( 12.86, 165.60) 01/26/2022 02:17:49 ( 22.66, 163.25)
25 01/26/2022 03:55:44 ( 10.05, 140.87) 01/26/2022 03:57:24 ( 15.93, 139.51)
26 01/26/2022 14:46:06 ( 22.69, 163.49) 01/26/2022 14:49:42 ( 10.01, 160.47)
27 01/27/2022 03:36:40 ( 10.05, 145.63) 01/27/2022 03:40:15 ( 22.67, 142.63)
28 01/27/2022 14:30:11 ( 11.60, 165.60) 01/27/2022 14:30:38 ( 10.02, 165.24)
29 01/27/2022 16:08:32 ( 22.68, 142.87) 01/27/2022 16:12:08 ( 10.00, 139.86)
30 01/28/2022 03:17:37 ( 10.04, 150.40) 01/28/2022 03:21:12 ( 22.67, 147.40)
31 01/28/2022 15:49:29 ( 22.69, 147.64) 01/28/2022 15:53:05 ( 10.01, 144.62)
32 01/29/2022 02:58:33 ( 10.04, 155.16) 01/29/2022 03:02:08 ( 22.67, 152.16)
